When you browse on this site, cookies collect data to enhance your experience and personalize the content and advertising you see.
Visit our Privacy Policy to learn more. By continuing to use the site, you agree to this use of cookies and data.
  • In Czech Republic
  • List of Countries
  • For 7 days
  • Water Temperature
  • Satellite Maps
  • Weather Map
  • Weather Widgets
  • user-avatar
    Login

    Hourly Weather Dinagepoor

    Today, 21 March, Thursday

    Time Temperature Precipitation Wind Pressure Humidity
    00:00 +27°C° 0 mm 2 mps 755 mmHg 24%
    01:00 +26°C° 0 mm 1 mps 755 mmHg 26%
    02:00 +25°C° 0 mm 1 mps 755 mmHg 27%
    03:00 +25°C° 0 mm 1 mps 754 mmHg 29%
    04:00 +24°C° 0 mm 1 mps 755 mmHg 32%
    05:00 +24°C° 0 mm 1 mps 755 mmHg 34%
    06:00 +22°C° 0 mm 0 mps 755 mmHg 30%
    07:00 +24°C° 0 mm 0 mps 755 mmHg 28%
    08:00 +27°C° 0 mm 1 mps 756 mmHg 26%
    09:00 +29°C° 0 mm 1 mps 756 mmHg 23%
    10:00 +31°C° 0 mm 2 mps 756 mmHg 21%
    11:00 +34°C° 0 mm 3 mps 756 mmHg 19%
    12:00 +36°C° 0 mm 3 mps 756 mmHg 17%
    13:00 +36°C° 0 mm 4 mps 755 mmHg 16%
    14:00 +37°C° 0 mm 4 mps 754 mmHg 16%
    15:00 +39°C° 0 mm 5 mps 754 mmHg 15%
    16:00 +37°C° 0 mm 4 mps 753 mmHg 16%
    17:00 +36°C° 0 mm 4 mps 753 mmHg 18%
    18:00 +35°C° 0 mm 3 mps 753 mmHg 19%
    19:00 +34°C° 0 mm 2 mps 753 mmHg 20%
    20:00 +32°C° 0 mm 2 mps 754 mmHg 21%
    21:00 +31°C° 0 mm 1 mps 754 mmHg 22%
    22:00 +30°C° 0 mm 1 mps 754 mmHg 22%
    23:00 +30°C° 0 mm 1 mps 754 mmHg 23%

    Tomorrow, 22 March, Friday

    Time Temperature Precipitation Wind Pressure Humidity
    00:00 +29°C° 0 mm 1 mps 754 mmHg 24%
    01:00 +28°C° 0 mm 1 mps 754 mmHg 26%
    02:00 +28°C° 0 mm 2 mps 754 mmHg 28%
    03:00 +27°C° 0 mm 2 mps 754 mmHg 30%
    04:00 +27°C° 0 mm 2 mps 754 mmHg 32%
    05:00 +26°C° 0 mm 2 mps 754 mmHg 33%
    06:00 +26°C° 0 mm 3 mps 754 mmHg 35%
    07:00 +27°C° 0 mm 3 mps 755 mmHg 36%
    08:00 +28°C° 0 mm 3 mps 755 mmHg 36%
    09:00 +29°C° 0 mm 4 mps 756 mmHg 36%
    10:00 +31°C° 0 mm 3 mps 755 mmHg 33%
    11:00 +34°C° 0 mm 2 mps 755 mmHg 30%
    12:00 +36°C° 0 mm 2 mps 755 mmHg 26%
    13:00 +37°C° 0 mm 3 mps 754 mmHg 23%
    14:00 +38°C° 0 mm 3 mps 753 mmHg 20%
    15:00 +40°C° 0 mm 4 mps 752 mmHg 17%
    16:00 +38°C° 0 mm 4 mps 751 mmHg 18%
    17:00 +37°C° 0 mm 4 mps 751 mmHg 20%
    18:00 +36°C° 0 mm 4 mps 751 mmHg 21%
    19:00 +35°C° 0 mm 4 mps 751 mmHg 22%
    20:00 +34°C° 0 mm 4 mps 752 mmHg 23%
    21:00 +33°C° 0 mm 4 mps 753 mmHg 24%
    22:00 +32°C° 0 mm 4 mps 753 mmHg 24%
    23:00 +30°C° 0 mm 3 mps 753 mmHg 24%

    Day after tomorrow, 23 March, Saturday

    Time Temperature Precipitation Wind Pressure Humidity
    00:00 +29°C° 0 mm 3 mps 753 mmHg 25%
    01:00 +29°C° 0 mm 3 mps 753 mmHg 25%
    02:00 +28°C° 0 mm 3 mps 753 mmHg 26%
    03:00 +27°C° 0 mm 3 mps 753 mmHg 27%
    04:00 +26°C° 0 mm 3 mps 753 mmHg 27%
    05:00 +26°C° 0 mm 3 mps 753 mmHg 28%
    06:00 +25°C° 0 mm 3 mps 753 mmHg 28%
    07:00 +27°C° 0 mm 3 mps 754 mmHg 25%
    08:00 +29°C° 0 mm 4 mps 755 mmHg 22%
    09:00 +32°C° 0 mm 5 mps 755 mmHg 20%
    10:00 +33°C° 0 mm 6 mps 755 mmHg 17%
    11:00 +35°C° 0 mm 6 mps 755 mmHg 14%
    12:00 +36°C° 0 mm 7 mps 755 mmHg 11%
    13:00 +38°C° 0 mm 7 mps 753 mmHg 10%
    14:00 +38°C° 0 mm 7 mps 752 mmHg 10%
    15:00 +39°C° 0 mm 7 mps 751 mmHg 9%
    16:00 +38°C° 0 mm 6 mps 751 mmHg 10%
    17:00 +36°C° 0 mm 5 mps 751 mmHg 11%
    18:00 +34°C° 0 mm 4 mps 751 mmHg 12%
    19:00 +33°C° 0 mm 3 mps 752 mmHg 12%
    20:00 +31°C° 0 mm 3 mps 752 mmHg 13%
    21:00 +29°C° 0 mm 3 mps 753 mmHg 14%
    22:00 +29°C° 0 mm 3 mps 753 mmHg 15%
    23:00 +28°C° 0 mm 3 mps 753 mmHg 17%

    24 March, Sunday

    Time Temperature Precipitation Wind Pressure Humidity
    00:00 +27°C° 0 mm 2 mps 753 mmHg 18%
    01:00 +27°C° 0 mm 2 mps 752 mmHg 19%
    02:00 +26°C° 0 mm 2 mps 752 mmHg 19%
    03:00 +25°C° 0 mm 2 mps 752 mmHg 20%
    04:00 +25°C° 0 mm 2 mps 752 mmHg 21%
    05:00 +24°C° 0 mm 2 mps 753 mmHg 22%
    06:00 +24°C° 0 mm 2 mps 753 mmHg 23%
    07:00 +25°C° 0 mm 2 mps 754 mmHg 22%
    08:00 +27°C° 0 mm 2 mps 754 mmHg 21%
    09:00 +29°C° 0 mm 2 mps 755 mmHg 20%
    10:00 +31°C° 0 mm 2 mps 755 mmHg 18%
    11:00 +34°C° 0 mm 2 mps 754 mmHg 16%
    12:00 +36°C° 0 mm 2 mps 754 mmHg 14%
    13:00 +36°C° 0 mm 3 mps 753 mmHg 13%
    14:00 +37°C° 0 mm 3 mps 753 mmHg 13%
    15:00 +38°C° 0 mm 4 mps 752 mmHg 12%
    16:00 +37°C° 0 mm 3 mps 752 mmHg 13%
    17:00 +36°C° 0 mm 3 mps 752 mmHg 15%
    18:00 +35°C° 0 mm 2 mps 752 mmHg 17%
    19:00 +33°C° 0 mm 1 mps 752 mmHg 17%
    20:00 +31°C° 0 mm 1 mps 753 mmHg 18%
    21:00 +28°C° 0 mm 0 mps 754 mmHg 19%
    22:00 +30°C° 0 mm 1 mps 754 mmHg 20%
    23:00 +29°C° 0 mm 1 mps 754 mmHg 21%

    25 March, Monday

    Time Temperature Precipitation Wind Pressure Humidity
    00:00 +28°C° 0 mm 1 mps 754 mmHg 22%
    01:00 +27°C° 0 mm 1 mps 753 mmHg 24%
    02:00 +27°C° 0 mm 1 mps 753 mmHg 25%
    03:00 +26°C° 0 mm 2 mps 753 mmHg 27%
    04:00 +25°C° 0 mm 2 mps 753 mmHg 29%
    05:00 +25°C° 0 mm 2 mps 753 mmHg 31%
    06:00 +24°C° 0 mm 2 mps 754 mmHg 33%
    07:00 +26°C° 0 mm 2 mps 754 mmHg 30%
    08:00 +28°C° 0 mm 3 mps 755 mmHg 28%
    09:00 +29°C° 0 mm 3 mps 756 mmHg 26%
    10:00 +31°C° 0 mm 3 mps 755 mmHg 23%
    11:00 +34°C° 0 mm 2 mps 755 mmHg 21%
    12:00 +35°C° 0 mm 1 mps 755 mmHg 18%
    13:00 +37°C° 0 mm 2 mps 754 mmHg 17%
    14:00 +38°C° 0 mm 2 mps 753 mmHg 15%
    15:00 +38°C° 0 mm 2 mps 752 mmHg 14%
    16:00 +38°C° 0 mm 2 mps 752 mmHg 15%
    17:00 +37°C° 0 mm 2 mps 752 mmHg 16%
    18:00 +36°C° 0 mm 2 mps 752 mmHg 17%
    19:00 +35°C° 0 mm 2 mps 753 mmHg 18%
    20:00 +33°C° 0 mm 1 mps 753 mmHg 19%
    21:00 +32°C° 0 mm 1 mps 754 mmHg 20%
    22:00 +31°C° 0 mm 1 mps 754 mmHg 21%
    23:00 +30°C° 0 mm 1 mps 754 mmHg 22%

    26 March, Tuesday

    Time Temperature Precipitation Wind Pressure Humidity
    00:00 +29°C° 0 mm 1 mps 754 mmHg 23%
    01:00 +29°C° 0 mm 1 mps 754 mmHg 25%
    02:00 +28°C° 0 mm 1 mps 753 mmHg 27%
    03:00 +27°C° 0 mm 1 mps 753 mmHg 28%
    04:00 +26°C° 0 mm 2 mps 753 mmHg 30%
    05:00 +26°C° 0 mm 2 mps 753 mmHg 32%
    06:00 +25°C° 0 mm 2 mps 754 mmHg 34%
    07:00 +27°C° 0 mm 2 mps 754 mmHg 31%
    08:00 +29°C° 0 mm 2 mps 755 mmHg 28%
    09:00 +31°C° 0 mm 2 mps 756 mmHg 26%
    10:00 +34°C° 0 mm 2 mps 755 mmHg 23%
    11:00 +36°C° 0 mm 3 mps 755 mmHg 20%
    12:00 +38°C° 0 mm 4 mps 755 mmHg 17%
    13:00 +40°C° 0 mm 5 mps 754 mmHg 16%
    14:00 +41°C° 0 mm 6 mps 753 mmHg 15%
    15:00 +43°C° 0 mm 7 mps 752 mmHg 14%
    16:00 +40°C° 0 mm 6 mps 752 mmHg 16%
    17:00 +38°C° 0 mm 4 mps 752 mmHg 17%
    18:00 +37°C° 0 mm 3 mps 752 mmHg 19%
    19:00 +36°C° 0 mm 3 mps 753 mmHg 20%
    20:00 +35°C° 0 mm 3 mps 753 mmHg 22%
    21:00 +34°C° 0 mm 3 mps 754 mmHg 23%
    22:00 +32°C° 0 mm 2 mps 754 mmHg 25%
    23:00 +31°C° 0 mm 2 mps 754 mmHg 26%
    Show more